SWR41 KLAX-LSZH

Flight info

Callsign SWR41
Flight time N/A
Altitude 33000
Route ORCKA5 BEALE DCT EEVUN DCT BCE DCT MBW DCT RAP DCT KP06A DCT MISAX DCT PELEE/N0493F350 DCT BROME DCT LOMSI/M084F360 NATU SOVED/N0482F370 DCT REVNU DCT LIPGO DCT NUCHU DCT BOGNA UL612 VEULE/N0484F350 DCT TEPRI UN491 POGZI DCT GELTA DCT MANAG DCT PEVIT DCT BLM BLM3G
Aircraft B77W/H-SDE1E2E3FGHIJ2J3J4J5M1RWXY/LB1D1

Departure

Time 2026-04-21 23:47
Airport Los Angeles International Airport (KLAX)

Arrival

Time N/A
Airport Zürich Airport (LSZH)
Time Latitude Longitude Altitude Speed Heading
2026-04-21 22:54 33.94395 -118.41125 101 ft 0 kts 84°
2026-04-21 23:31 33.94395 -118.41131 99 ft 3 kts 84°
2026-04-21 23:31 33.94392 -118.41163 97 ft 4 kts 84°
2026-04-21 23:32 33.94390 -118.41191 97 ft 2 kts 84°
2026-04-21 23:32 33.94391 -118.41220 96 ft 4 kts 117°
2026-04-21 23:32 33.94407 -118.41241 97 ft 4 kts 164°
2026-04-21 23:32 33.94432 -118.41246 97 ft 4 kts 173°
2026-04-21 23:33 33.94450 -118.41248 97 ft 0 kts 173°
2026-04-21 23:36 33.94436 -118.41246 96 ft 4 kts 172°
2026-04-21 23:37 33.94398 -118.41240 97 ft 7 kts 173°
2026-04-21 23:37 33.94347 -118.41232 98 ft 8 kts 173°
2026-04-21 23:37 33.94283 -118.41223 98 ft 10 kts 173°
2026-04-21 23:37 33.94209 -118.41213 100 ft 11 kts 175°
2026-04-21 23:38 33.94133 -118.41202 99 ft 11 kts 172°
2026-04-21 23:38 33.94057 -118.41189 98 ft 11 kts 173°
2026-04-21 23:38 33.93981 -118.41178 98 ft 11 kts 173°
2026-04-21 23:38 33.93906 -118.41166 100 ft 11 kts 173°
2026-04-21 23:39 33.93830 -118.41156 100 ft 11 kts 173°
2026-04-21 23:39 33.93772 -118.41105 99 ft 11 kts 108°
2026-04-21 23:39 33.93776 -118.41003 98 ft 14 kts 82°
2026-04-21 23:39 33.93788 -118.40879 98 ft 15 kts 83°
2026-04-21 23:40 33.93802 -118.40751 100 ft 15 kts 82°
2026-04-21 23:40 33.93816 -118.40622 99 ft 15 kts 82°
2026-04-21 23:40 33.93827 -118.40493 102 ft 15 kts 84°
2026-04-21 23:40 33.93840 -118.40365 102 ft 15 kts 83°
2026-04-21 23:41 33.93853 -118.40237 102 ft 15 kts 82°
2026-04-21 23:41 33.93867 -118.40109 104 ft 15 kts 83°
2026-04-21 23:41 33.93880 -118.39980 101 ft 15 kts 83°
2026-04-21 23:41 33.93894 -118.39852 101 ft 15 kts 83°
2026-04-21 23:42 33.93907 -118.39723 100 ft 15 kts 83°
2026-04-21 23:42 33.93919 -118.39595 100 ft 15 kts 83°
2026-04-21 23:42 33.93931 -118.39471 99 ft 15 kts 82°
2026-04-21 23:42 33.93945 -118.39343 99 ft 15 kts 82°
2026-04-21 23:43 33.93959 -118.39215 99 ft 15 kts 83°
2026-04-21 23:43 33.93973 -118.39086 99 ft 15 kts 83°
2026-04-21 23:43 33.93986 -118.38958 100 ft 15 kts 83°
2026-04-21 23:43 33.93999 -118.38830 102 ft 15 kts 83°
2026-04-21 23:44 33.94012 -118.38702 102 ft 15 kts 83°
2026-04-21 23:44 33.94024 -118.38573 102 ft 15 kts 83°
2026-04-21 23:44 33.94037 -118.38445 103 ft 15 kts 83°
2026-04-21 23:44 33.94049 -118.38316 101 ft 15 kts 83°
2026-04-21 23:45 33.94064 -118.38188 99 ft 15 kts 81°
2026-04-21 23:45 33.94034 -118.38005 98 ft 12 kts 162°
2026-04-21 23:45 33.93979 -118.38061 98 ft 12 kts 263°
2026-04-21 23:46 33.93962 -118.38228 103 ft 40 kts 264°
2026-04-21 23:46 33.93897 -118.38867 103 ft 113 kts 263°
2026-04-21 23:46 33.93773 -118.40069 103 ft 174 kts 266°
2026-04-21 23:46 33.93640 -118.41621 297 ft 194 kts 264°
2026-04-21 23:47 33.93592 -118.43275 748 ft 194 kts 272°
2026-04-21 23:47 33.93665 -118.44887 1482 ft 190 kts 266°
2026-04-21 23:47 33.93445 -118.46460 1882 ft 200 kts 256°
2026-04-21 23:47 33.92967 -118.48117 2087 ft 216 kts 251°
2026-04-21 23:48 33.92390 -118.49860 2213 ft 230 kts 249°
2026-04-21 23:48 33.91732 -118.51672 2198 ft 242 kts 247°
2026-04-21 23:48 33.91031 -118.53493 2241 ft 237 kts 247°
2026-04-21 23:48 33.90360 -118.55310 2682 ft 240 kts 248°
2026-04-21 23:49 33.89674 -118.57156 3340 ft 242 kts 247°
2026-04-21 23:49 33.88969 -118.59009 3946 ft 245 kts 247°
2026-04-21 23:49 33.88248 -118.60870 4631 ft 247 kts 245°
2026-04-21 23:49 33.87494 -118.62738 5302 ft 247 kts 244°
2026-04-21 23:50 33.86696 -118.64591 5908 ft 250 kts 240°
2026-04-21 23:50 33.85573 -118.66163 6394 ft 253 kts 213°
2026-04-21 23:50 33.83910 -118.66874 6919 ft 262 kts 191°
2026-04-21 23:50 33.82053 -118.66770 7427 ft 272 kts 171°
2026-04-21 23:51 33.80316 -118.65845 8087 ft 279 kts 149°
2026-04-21 23:51 33.78990 -118.64099 8724 ft 292 kts 123°
2026-04-21 23:51 33.78429 -118.61712 9195 ft 308 kts 94°
2026-04-21 23:51 33.78897 -118.59173 9644 ft 319 kts 62°
2026-04-21 23:52 33.80313 -118.57124 10095 ft 322 kts 40°
2026-04-21 23:52 33.82056 -118.55348 10358 ft 337 kts 40°
2026-04-21 23:52 33.83897 -118.53477 10523 ft 357 kts 39°
2026-04-21 23:52 33.85836 -118.51479 10676 ft 377 kts 40°
2026-04-21 23:53 33.87859 -118.49345 10840 ft 397 kts 40°
2026-04-21 23:53 33.89953 -118.47100 11217 ft 410 kts 41°
2026-04-21 23:53 33.91364 -118.45566 11548 ft 416 kts 42°
2026-04-21 23:53 33.94006 -118.42097 12378 ft 426 kts 52°
2026-04-21 23:54 33.95156 -118.40153 12858 ft 429 kts 56°
2026-04-21 23:54 33.96807 -118.37137 13504 ft 435 kts 56°
2026-04-21 23:54 33.98497 -118.34087 14100 ft 442 kts 55°
2026-04-21 23:54 34.00238 -118.30996 14680 ft 448 kts 55°
2026-04-21 23:55 34.02002 -118.27887 15324 ft 452 kts 54°
2026-04-21 23:55 34.03788 -118.24737 15943 ft 458 kts 54°
2026-04-21 23:55 34.05600 -118.21537 16431 ft 466 kts 54°
2026-04-21 23:55 34.07442 -118.18284 17028 ft 471 kts 54°
2026-04-21 23:56 34.09295 -118.15015 17665 ft 475 kts 54°
2026-04-21 23:56 34.11165 -118.11710 18321 ft 478 kts 54°
2026-04-21 23:56 34.13047 -118.08377 18836 ft 484 kts 54°
2026-04-21 23:56 34.14944 -118.05004 19365 ft 487 kts 55°
2026-04-21 23:57 34.16848 -118.01614 19994 ft 488 kts 55°
2026-04-21 23:57 34.18759 -117.98208 20528 ft 492 kts 54°
2026-04-21 23:57 34.20697 -117.94762 20958 ft 498 kts 54°
2026-04-21 23:57 34.22648 -117.91289 21459 ft 502 kts 54°
2026-04-21 23:58 34.24628 -117.87769 21949 ft 506 kts 54°
2026-04-21 23:58 34.26609 -117.84238 22497 ft 509 kts 55°
2026-04-21 23:58 34.28600 -117.80683 23014 ft 513 kts 55°
2026-04-21 23:58 34.30603 -117.77109 23481 ft 517 kts 54°
2026-04-21 23:59 34.32637 -117.73476 23882 ft 522 kts 55°
2026-04-21 23:59 34.34556 -117.69739 24215 ft 525 kts 60°
2026-04-21 23:59 34.36218 -117.65794 24542 ft 528 kts 67°
2026-04-21 23:59 34.37595 -117.61672 25034 ft 530 kts 70°
2026-04-22 00:00 34.38919 -117.57487 25320 ft 536 kts 70°
2026-04-22 00:00 34.40249 -117.53249 25662 ft 540 kts 70°
2026-04-22 00:00 34.41593 -117.49001 26058 ft 542 kts 70°
2026-04-22 00:00 34.42961 -117.44736 26455 ft 544 kts 70°
2026-04-22 00:01 34.44346 -117.40463 26895 ft 545 kts 70°
2026-04-22 00:01 34.45738 -117.36185 27264 ft 548 kts 70°
2026-04-22 00:01 34.47143 -117.31873 27567 ft 552 kts 70°
2026-04-22 00:01 34.48558 -117.27521 27865 ft 556 kts 70°
2026-04-22 00:02 34.49979 -117.23144 28176 ft 559 kts 70°
2026-04-22 00:02 34.51398 -117.18750 28497 ft 562 kts 70°
2026-04-22 00:02 34.52925 -117.14381 28761 ft 564 kts 65°
2026-04-22 00:02 34.54780 -117.10177 29025 ft 568 kts 60°
2026-04-22 00:03 34.56900 -117.06133 29317 ft 570 kts 54°
2026-04-22 00:03 34.59330 -117.02333 29679 ft 569 kts 49°
2026-04-22 00:03 34.61882 -116.98672 30095 ft 567 kts 48°
2026-04-22 00:03 34.64445 -116.95030 30467 ft 566 kts 48°
2026-04-22 00:04 34.66995 -116.91385 30805 ft 566 kts 49°
2026-04-22 00:04 34.69544 -116.87710 31086 ft 567 kts 49°
2026-04-22 00:04 34.72068 -116.84041 31428 ft 565 kts 50°
2026-04-22 00:04 34.74571 -116.80373 31821 ft 563 kts 50°
2026-04-22 00:05 34.77069 -116.76698 32089 ft 564 kts 50°
2026-04-22 00:05 34.79572 -116.73025 32337 ft 564 kts 50°
2026-04-22 00:05 34.82079 -116.69356 32505 ft 566 kts 50°
2026-04-22 00:05 34.84590 -116.65663 32784 ft 565 kts 50°
2026-04-22 00:06 34.87112 -116.62002 32961 ft 566 kts 48°
2026-04-22 00:06 34.92391 -116.54879 32981 ft 565 kts 46°
2026-04-22 00:07 34.97746 -116.47863 32936 ft 566 kts 46°
2026-04-22 00:07 35.03052 -116.40833 32905 ft 567 kts 46°
2026-04-22 00:08 35.08389 -116.33671 32898 ft 567 kts 46°
2026-04-22 00:08 35.13687 -116.26529 32901 ft 567 kts 46°
2026-04-22 00:09 35.18976 -116.19385 32879 ft 567 kts 47°
2026-04-22 00:09 35.24258 -116.12238 32931 ft 566 kts 47°
2026-04-22 00:10 35.29545 -116.05076 32906 ft 567 kts 47°
2026-04-22 00:10 35.34825 -115.97911 32919 ft 567 kts 47°
2026-04-22 00:11 35.40062 -115.90791 32902 ft 566 kts 47°
2026-04-22 00:11 35.45336 -115.83604 32916 ft 566 kts 47°
2026-04-22 00:12 35.50597 -115.76415 32907 ft 565 kts 47°
2026-04-22 00:12 35.55841 -115.69237 32919 ft 565 kts 47°
2026-04-22 00:13 35.61085 -115.62049 32890 ft 564 kts 47°
2026-04-22 00:13 35.66320 -115.54866 32897 ft 564 kts 47°
2026-04-22 00:14 35.71537 -115.47676 32917 ft 564 kts 48°
2026-04-22 00:14 35.76755 -115.40444 32883 ft 564 kts 48°
2026-04-22 00:15 35.81965 -115.33219 32889 ft 565 kts 48°
2026-04-22 00:15 35.87173 -115.25999 32871 ft 564 kts 48°
2026-04-22 00:16 35.92373 -115.18765 32872 ft 563 kts 49°
2026-04-22 00:16 35.97561 -115.11540 32886 ft 562 kts 48°
2026-04-22 00:17 36.02744 -115.04321 32891 ft 561 kts 48°
2026-04-22 00:17 36.07902 -114.97110 32830 ft 559 kts 49°
2026-04-22 00:18 36.13049 -114.89895 32766 ft 559 kts 49°
2026-04-22 00:18 36.18201 -114.82675 32765 ft 559 kts 48°
2026-04-22 00:19 36.23573 -114.75707 32777 ft 560 kts 45°
2026-04-22 00:19 36.29049 -114.68817 32749 ft 561 kts 45°
2026-04-22 00:20 36.34487 -114.61965 32745 ft 561 kts 45°
2026-04-22 00:20 36.39932 -114.55037 32717 ft 561 kts 45°
2026-04-22 00:21 36.45370 -114.48066 32725 ft 561 kts 46°
2026-04-22 00:21 36.50806 -114.41105 32725 ft 561 kts 46°
2026-04-22 00:22 36.56236 -114.34142 32736 ft 561 kts 46°
2026-04-22 00:22 36.61666 -114.27166 32744 ft 561 kts 46°
2026-04-22 00:23 36.67090 -114.20173 32748 ft 561 kts 46°
2026-04-22 00:23 36.72508 -114.13172 32756 ft 561 kts 46°
2026-04-22 00:24 36.77917 -114.06176 32733 ft 560 kts 46°
2026-04-22 00:24 36.83322 -113.99181 32781 ft 559 kts 46°
2026-04-22 00:25 36.88712 -113.92173 32770 ft 559 kts 47°
2026-04-22 00:25 36.94088 -113.85166 32811 ft 559 kts 47°
2026-04-22 00:26 36.99470 -113.78158 32847 ft 558 kts 47°
2026-04-22 00:26 37.04644 -113.70940 32862 ft 556 kts 54°
2026-04-22 00:27 37.08822 -113.62834 32858 ft 553 kts 64°
2026-04-22 00:27 37.12574 -113.54486 32867 ft 553 kts 64°
2026-04-22 00:28 37.16381 -113.46101 32857 ft 554 kts 63°
2026-04-22 00:28 37.20235 -113.37728 32802 ft 554 kts 63°
2026-04-22 00:29 37.24097 -113.29360 32824 ft 554 kts 63°
2026-04-22 00:29 37.27943 -113.20986 32830 ft 554 kts 63°
2026-04-22 00:30 37.31781 -113.12604 32840 ft 553 kts 64°
2026-04-22 00:30 37.35601 -113.04228 32862 ft 552 kts 63°
2026-04-22 00:31 37.39403 -112.95875 32886 ft 551 kts 63°
2026-04-22 00:31 37.43202 -112.87506 32893 ft 550 kts 63°
2026-04-22 00:32 37.46988 -112.79141 32911 ft 550 kts 63°
2026-04-22 00:32 37.50764 -112.70790 32901 ft 548 kts 63°
2026-04-22 00:33 37.54530 -112.62441 32925 ft 547 kts 63°
2026-04-22 00:33 37.58280 -112.54095 32907 ft 547 kts 63°
2026-04-22 00:34 37.62023 -112.45761 32984 ft 546 kts 63°
2026-04-22 00:34 37.65761 -112.37422 33033 ft 545 kts 63°
2026-04-22 00:35 37.69774 -112.29316 33105 ft 546 kts 55°
2026-04-22 00:35 37.74755 -112.22079 33110 ft 546 kts 47°
2026-04-22 00:36 37.79963 -112.15072 33124 ft 546 kts 47°
2026-04-22 00:36 37.85135 -112.08034 33076 ft 545 kts 47°
2026-04-22 00:37 37.90255 -112.00953 33022 ft 545 kts 47°
2026-04-22 00:37 37.95347 -111.93870 32974 ft 543 kts 48°
2026-04-22 00:38 37.99578 -111.87987 32929 ft 542 kts 48°
2026-04-22 00:38 38.04644 -111.80919 32934 ft 541 kts 48°
2026-04-22 00:39 38.09678 -111.73876 32898 ft 537 kts 48°
2026-04-22 00:39 38.14688 -111.66878 32903 ft 534 kts 48°
2026-04-22 00:40 38.19670 -111.59907 32900 ft 532 kts 48°
2026-04-22 00:40 38.24633 -111.52935 32901 ft 532 kts 49°
2026-04-22 00:41 38.29596 -111.45955 32897 ft 532 kts 49°
2026-04-22 00:41 38.34568 -111.38938 32878 ft 534 kts 49°
2026-04-22 00:42 38.39543 -111.31868 32866 ft 536 kts 49°
2026-04-22 00:42 38.44541 -111.24790 32838 ft 537 kts 49°